Content
SEND FEEDBACK

Daily
Averages
Monthly
Summary
United States of America

FREDERICKTOWN, MISSOURI


Home > North America > United States > Missouri
Elevation: 700 feet     Latitude: 37 34N     Longitude: 090 18W

WEATHER
 
SELECT A DAY
Number of Records: 441,996;   Date Range: 2/10/95 - 7/7/14
 
SHARE

PRINT THIS DATA

[ ← Previous Day ]
WEATHER ALMANAC - JANUARY 6, 2013
[ Next Day → ]
[ °C ]   °F
Weather ElementAverageHighLow
Temperature32.7 °F39.2 °F (2:35 pm)19.4 °F (11:55 pm)
Dewpoint23 °F28.4 °F (12:35 am)17.6 °F (6:15 pm)
Humidity68.3 %93 % (11:55 pm)48 % (4:35 pm)
Barometer30.25 in30.39 in (11:55 pm)30.12 in (4:55 am)
Wind Speed7.5 mph16.1 mph (10:35 am)
Wind Gust24.2 mph (7:55 am)
Weather ElementAverage
Visibility10 mi
Wind DirectionSW (230 °)

Weather ElementTotal
Precipitation---
Heating Degree Days35.7 (Base 65)
Averaged from 68 records on January 6, 2013
WEATHER CONDITIONS BREAKOUT
WIND DIRECTION BREAKOUT
WEATHER BY HOUR - JANUARY 6, 2013
[ °C ]   °F
Local TimeTemperatureDewpointHumidityBarometerVisibilityWind DirectionWind SpeedGust SpeedPrecipitationEventsConditions
12:35 AM35.6 °F28.4 °F75 %30.15 in10.0 miSouth (190°)8.1 mphOvercast
12:55 AM35.6 °F28.4 °F75 %30.14 in10.0 miSSW (200°)8.1 mphMostly Cloudy
1:15 AM35.6 °F28.4 °F75 %30.14 in10.0 miSSW (210°)8.1 mphMostly Cloudy
1:35 AM35.6 °F28.4 °F75 %30.14 in10.0 miSSW (210°)6.9 mphMostly Cloudy
1:55 AM35.6 °F28.4 °F75 %30.14 in10.0 miSSW (210°)10.4 mphPartly Cloudy
2:15 AM35.6 °F28.4 °F75 %30.14 in10.0 miSW (230°)6.9 mphClear
2:35 AM35.6 °F28.4 °F75 %30.14 in10.0 miWSW (250°)10.4 mphClear
2:55 AM37.4 °F28.4 °F70 %30.13 in10.0 miWSW (250°)9.2 mph16.1 mphClear
3:15 AM37.4 °F28.4 °F70 %30.13 in10.0 miWest (260°)8.1 mph16.1 mphClear
3:35 AM37.4 °F28.4 °F70 %30.13 in10.0 miWest (270°)9.2 mphClear
3:55 AM35.6 °F28.4 °F75 %30.13 in10.0 miWest (280°)8.1 mphClear
4:15 AM35.6 °F28.4 °F75 %30.13 in10.0 miWest (270°)6.9 mphClear
4:35 AM35.6 °F26.6 °F70 %30.13 in10.0 miWest (280°)5.8 mphClear
4:55 AM35.6 °F26.6 °F70 %30.12 in10.0 miWest (270°)6.9 mphClear
5:15 AM33.8 °F26.6 °F75 %30.12 in10.0 miWest (280°)5.8 mphClear
5:35 AM33.8 °F26.6 °F75 %30.13 in10.0 miWest (280°)4.6 mphClear
5:55 AM33.8 °F26.6 °F75 %30.14 in10.0 miWNW (290°)5.8 mphClear
6:15 AM33.8 °F26.6 °F75 %30.15 in10.0 miWNW (290°)6.9 mphClear
6:35 AM33.8 °F26.6 °F75 %30.16 in10.0 miWNW (290°)9.2 mphClear
6:55 AM32.0 °F26.6 °F80 %30.17 in10.0 miWNW (290°)9.2 mphClear
7:15 AM32.0 °F26.6 °F80 %30.18 in10.0 miWNW (290°)10.4 mph17.3 mphPartly Cloudy
7:35 AM32.0 °F24.8 °F75 %30.18 in10.0 miWNW (290°)12.7 mph19.6 mphMostly Cloudy
7:55 AM32.0 °F24.8 °F75 %30.19 in10.0 miNW (310°)12.7 mph24.2 mphOvercast
8:15 AM32.0 °F24.8 °F75 %30.21 in10.0 miWNW (300°)11.5 mph21.9 mphOvercast
8:35 AM32.0 °F23.0 °F69 %30.21 in10.0 miWNW (290°)12.7 mph20.7 mphOvercast
8:55 AM30.2 °F23.0 °F75 %30.23 in10.0 miWNW (300°)13.8 mph19.6 mphOvercast
9:15 AM30.2 °F23.0 °F75 %30.24 in10.0 miNNW (330°)12.7 mphOvercast
9:35 AM30.2 °F21.2 °F69 %30.25 in10.0 miNW (310°)11.5 mph17.3 mphOvercast
9:55 AM30.2 °F21.2 °F69 %30.26 in10.0 miNW (310°)15.0 mph20.7 mphOvercast
10:15 AM30.2 °F21.2 °F69 %30.26 in10.0 miWNW (300°)9.2 mphOvercast
10:35 AM32.0 °F21.2 °F64 %30.27 in10.0 miNW (310°)16.1 mph19.6 mphOvercast
10:55 AM33.8 °F21.2 °F60 %30.26 in10.0 miNW (310°)11.5 mphOvercast
11:15 AM33.8 °F21.2 °F60 %30.26 in10.0 miNW (320°)13.8 mph18.4 mphScattered Clouds
11:35 AM33.8 °F23.0 °F65 %30.26 in10.0 miNW (320°)12.7 mph20.7 mphScattered Clouds
11:55 AM33.8 °F21.2 °F60 %30.25 in10.0 miWNW (290°)12.7 mph19.6 mphPartly Cloudy
12:15 PM35.6 °F23.0 °F60 %30.26 in10.0 miWNW (300°)16.1 mph21.9 mphClear
12:35 PM35.6 °F23.0 °F60 %30.25 in10.0 miNW (310°)9.2 mph21.9 mphClear
12:55 PM37.4 °F23.0 °F56 %30.26 in10.0 miWNW (300°)12.7 mph18.4 mphClear
1:15 PM37.4 °F23.0 °F56 %30.26 in10.0 miNW (310°)10.4 mph18.4 mphClear
1:35 PM37.4 °F24.8 °F60 %30.26 in10.0 miNW (320°)10.4 mphClear
1:55 PM37.4 °F23.0 °F56 %30.27 in10.0 miWNW (300°)10.4 mph16.1 mphClear
2:15 PM37.4 °F21.2 °F52 %30.28 in10.0 miNW (320°)10.4 mphClear
2:35 PM39.2 °F23.0 °F52 %30.29 in10.0 miWNW (300°)10.4 mphClear
2:55 PM39.2 °F21.2 °F49 %30.29 in10.0 miNW (310°)11.5 mphClear
3:15 PM39.2 °F21.2 °F49 %30.30 in10.0 miWNW (300°)11.5 mph16.1 mphClear
3:35 PM39.2 °F21.2 °F49 %30.31 in10.0 miNW (310°)11.5 mph16.1 mphClear
3:55 PM39.2 °F21.2 °F49 %30.32 in10.0 miWNW (300°)9.2 mphClear
4:35 PM37.4 °F19.4 °F48 %30.32 in10.0 miNW (310°)6.9 mphClear
4:55 PM35.6 °F19.4 °F52 %30.33 in10.0 miNW (310°)5.8 mphClear
5:15 PM33.8 °F19.4 °F56 %30.34 in10.0 miNW (310°)4.6 mphClear
5:35 PM33.8 °F21.2 °F60 %30.34 in10.0 miNNW (330°)3.5 mphClear
5:55 PM33.8 °F19.4 °F56 %30.35 in10.0 miNNW (340°)4.6 mphClear
6:15 PM33.8 °F17.6 °F52 %30.36 in10.0 miNNW (340°)3.5 mphClear
6:35 PM33.8 °F17.6 °F52 %30.36 in10.0 miNNW (340°)3.5 mphClear
6:55 PM28.4 °F21.2 °F74 %30.36 in10.0 miCalmClear
7:15 PM30.2 °F17.6 °F60 %30.36 in10.0 miCalmClear
7:35 PM26.6 °F17.6 °F69 %30.36 in10.0 miCalmClear
7:55 PM24.8 °F19.4 °F80 %30.36 in10.0 miCalmClear
8:15 PM26.6 °F19.4 °F74 %30.36 in10.0 miCalmClear
8:35 PM26.6 °F19.4 °F74 %30.37 in10.0 miCalmClear
8:55 PM24.8 °F17.6 °F74 %30.37 in10.0 miCalmClear
9:15 PM24.8 °F19.4 °F80 %30.37 in10.0 miCalmClear
9:55 PM24.8 °F21.2 °F86 %30.38 in10.0 miCalmClear
10:15 PM24.8 °F19.4 °F80 %30.38 in10.0 miCalmClear
10:35 PM23.0 °F19.4 °F86 %30.38 in10.0 miCalmClear
10:55 PM21.2 °F17.6 °F86 %30.38 in10.0 miCalmClear
11:35 PM21.2 °F17.6 °F86 %30.38 in10.0 miCalmClear
11:55 PM19.4 °F17.6 °F93 %30.39 in8.0 miCalmClear
Hourly data recorded from KFAM, located miles away from Fredericktown, Missouri







STORIES FROM OUR PARTNERS